Flag for Moldova Weather past 2 weeks in Bălți, Moldova

Now
75 °F

Scattered clouds.


Feels Like: 77 °F
Forecast: 63 / 85 °F
Wind: 10 mph from Northeast

Location: Baltsi-Leadoveni - The North of Moldova

Current Time: Jul 24, 2014 at 5:41:06 PM

Latest Report: Jul 24, 2014 at 5:00 PM


Visibility: N/A

Pressure: 29.86 "Hg

Humidity: 61%

Dew point: 61 °F

Location of BălțiLocation

Historic Weather in Bălți — Graph

°F

Bălți temperature yesterday

Maximum temperature yesterday: 77 °F (at 2:00 PM)
Minimum temperature yesterday: 63 °F (at 3:00 AM)
Average temperature yesterday: 66 °F

Past Weeks' High & Low Weather Summary

 TemperatureHumidityPressure
High84 °F (Jul 21, 1:30 PM)100% (Jul 10, 12:30 AM)30.04 "Hg (Jul 10, 12:30 AM)
Low59 °F (Jul 13, 1:00 AM)37% (Jul 14, 3:30 PM)29.56 "Hg (Jul 11, 4:30 PM)
Average70 °F76%29.87 "Hg
* Reported Jul 9 4:00 PM — Jul 24 4:30 PM, Bălți, Weather by CustomWeather, © 2014

Note: Actual official high and low records may vary slightly from our data, if they occured in-between our weather recording intervals... More about our weather records

Advertising

Bălți weather history for previous 24 hours

 ConditionsComfort  
Time TempWeatherWind HumidityBarometerVisibility
4:30 PM
Jul 24
73 °FScattered clouds.13 mph61%29.86 "HgN/A
4:00 PM75 °FScattered clouds.12 mph65%29.86 "HgN/A
3:30 PM75 °FScattered clouds.10 mph69%29.86 "HgN/A
3:00 PM75 °FScattered clouds.8 mph69%29.86 "HgN/A
2:30 PM73 °FThundershowers. Partly sunny.9 mph74%29.86 "HgN/A
2:00 PM73 °FThundershowers. Partly sunny.7 mph78%29.86 "HgN/A
1:30 PM73 °FBroken clouds.8 mph78%29.86 "HgN/A
1:00 PM73 °FScattered clouds.8 mph78%29.86 "HgN/A
12:30 PM72 °FScattered clouds.7 mph83%29.86 "HgN/A
12:00 PM72 °FBroken clouds.5 mph78%29.86 "HgN/A
11:30 AM72 °FPartly sunny.5 mph78%29.86 "HgN/A
11:00 AM70 °FPartly sunny.8 mph83%29.86 "HgN/A
10:30 AM68 °FBroken clouds.7 mph94%29.86 "HgN/A
10:00 AM64 °FScattered clouds.8 mph94%29.86 "HgN/A
9:30 AM64 °FScattered clouds.9 mph94%29.86 "HgN/A
8:30 AM64 °FLight rain. Partly sunny.9 mph94%29.86 "Hg4 mi
8:00 AM63 °FMild.8 mph100%29.86 "Hg3 mi
7:30 AM63 °FMild.7 mph100%29.86 "Hg3 mi
7:00 AM63 °FMild.8 mph100%29.83 "Hg3 mi
6:30 AM63 °FMild.9 mph94%29.83 "Hg3 mi
6:00 AM63 °FMild.8 mph100%29.83 "HgN/A
5:30 AM63 °FMild.6 mph100%29.83 "HgN/A
5:00 AM63 °FMild.7 mph94%29.83 "HgN/A
4:30 AM63 °FMild.6 mph94%29.83 "HgN/A
4:00 AM63 °FMild.8 mph94%29.83 "HgN/A
3:30 AM63 °FMild.7 mph94%29.83 "HgN/A
3:00 AM63 °FMild.9 mph94%29.83 "HgN/A
2:30 AM63 °FMild.9 mph94%29.86 "HgN/A
2:00 AM63 °FMild.9 mph94%29.86 "HgN/A
1:30 AM63 °FMild.9 mph94%29.86 "HgN/A
1:00 AM63 °FMild.10 mph94%29.86 "HgN/A
12:30 AM63 °FMild.10 mph94%29.86 "HgN/A
12:00 AM63 °FMild.10 mph94%29.86 "HgN/A
11:30 PM
Jul 23
63 °FMild.10 mph94%29.86 "HgN/A
11:00 PM63 °FMild.13 mph94%29.86 "HgN/A
10:00 PM63 °FMild.9 mph94%29.86 "HgN/A
9:30 PM63 °FMild.9 mph94%29.86 "HgN/A
9:00 PM63 °FMild.8 mph94%29.86 "HgN/A
8:30 PM64 °FMild.13 mph94%29.86 "HgN/A
8:00 PM64 °FMild.10 mph94%29.86 "HgN/A
7:30 PM63 °FMild.6 mph100%29.83 "HgN/A
7:00 PM63 °FThundershowers. Partly sunny.6 mph100%29.86 "HgN/A
6:30 PM63 °FThunderstorms. Mostly cloudy.6 mph94%29.86 "Hg5 mi
6:00 PM63 °FThunderstorms. Mostly cloudy.2 mph94%29.86 "Hg2 mi
5:32 PM63 °FStrong thunderstorms. Dense fog.15 mph94%29.86 "Hg1 mi
5:11 PM68 °FThundershowers. Partly sunny.12 mph83%29.83 "HgN/A
5:00 PM75 °FThundershowers. Partly sunny.16 mph65%29.80 "HgN/A
Weather by CustomWeather, © 2014

See weather overviewHow to use our weather pages